Weather History for KPAE - December, 2011

Change the Weather History Date:

Wednesday, December 14, 2011

  Actual Average Record
Temperature  
Mean Temperature 37 °F -  
Max Temperature 41 °F 45 °F 62 °F (1952)
Min Temperature 33 °F 35 °F 22 °F (1967)
Degree Days  
Heating Degree Days 28    
Moisture  
Dew Point 29 °F    
Average Humidity 70    
Maximum Humidity 79    
Minimum Humidity 60    
Precipitation  
Precipitation 0.02 in - - ()
Sea Level Pressure  
Sea Level Pressure 30.12 in    
Wind  
Wind Speed 6 mph (SSE)    
Max Wind Speed 13 mph    
Max Gust Speed 20 mph    
Visibility 10 miles    
Events Rain    
Averages and records for this station are not official NWS values.
T = Trace of Precipitation, MM = Missing Value Source: NWS Daily Summary

Daily Weather History Graph

Daily Weather History Graph

Search for Another Location

Airport or City:

Trip Planner

Search our weather history database for the weather conditions in past years. The results will help you decide how hot, cold, wet, or windy it might be!

Date:

Astronomy

Dec. 14, 2011 Rise Set
Actual Time 7:50 AM PST 4:16 PM PST
Civil Twilight 7:14 AM PST 4:52 PM PST
Nautical Twilight 6:35 AM PST 5:32 PM PST
Astronomical Twilight 5:57 AM PST 6:09 PM PST
Moon 8:57 PM PST (12/14) 10:25 AM PST (12/14)
Length of Visible Light 9h 37m
Length of Day
8h 25m
Waning Gibbous, 82% of the Moon is Illuminated
Dec 14
Waning Gibbous
Dec 17
Last Quarter
Dec 24
New
Dec 31
First Quarter
Jan 8
Full

Hourly Weather History & Observations

Time (PST) Temp. Windchill Dew Point Humidity Pressure Visibility Wind Dir Wind Speed Gust Speed Precip Events Conditions
12:53 AM 37.0 °F 32.4 °F 28.9 °F 73% 30.14 in 10.0 mi SSE 5.8 mph - N/A   Overcast
1:53 AM 33.1 °F 28.7 °F 27.0 °F 78% 30.14 in 10.0 mi South 4.6 mph - N/A   Clear
2:53 AM 34.0 °F 31.0 °F 27.0 °F 75% 30.15 in 10.0 mi SSE 3.5 mph - N/A   Clear
3:53 AM 34.0 °F 29.8 °F 28.0 °F 79% 30.16 in 10.0 mi South 4.6 mph - N/A   Overcast
4:53 AM 36.0 °F 31.1 °F 30.0 °F 79% 30.16 in 10.0 mi SSE 5.8 mph - N/A   Overcast
5:53 AM 35.1 °F 32.2 °F 28.9 °F 78% 30.16 in 10.0 mi South 3.5 mph - N/A   Overcast
6:53 AM 36.0 °F 29.6 °F 28.9 °F 76% 30.15 in 10.0 mi SSE 8.1 mph - N/A   Overcast
7:53 AM 36.0 °F 32.1 °F 27.0 °F 70% 30.15 in 10.0 mi SSE 4.6 mph - N/A   Overcast
8:53 AM 37.9 °F 35.5 °F 26.1 °F 62% 30.16 in 10.0 mi SE 3.5 mph - N/A   Overcast
9:53 AM 37.9 °F 33.5 °F 27.0 °F 65% 30.17 in 10.0 mi SSE 5.8 mph - N/A   Overcast
10:53 AM 37.9 °F 31.5 °F 28.9 °F 70% 30.15 in 10.0 mi SSE 9.2 mph - N/A   Overcast
11:53 AM 39.9 °F 35.8 °F 28.9 °F 65% 30.12 in 10.0 mi South 5.8 mph - N/A   Overcast
12:53 PM 39.9 °F 34.5 °F 30.0 °F 68% 30.11 in 10.0 mi South 8.1 mph - N/A   Overcast
1:53 PM 41.0 °F 34.3 °F 30.0 °F 65% 30.10 in 10.0 mi South 11.5 mph - N/A   Overcast
2:53 PM 41.0 °F 34.3 °F 30.9 °F 67% 30.09 in 10.0 mi South 11.5 mph 19.6 mph N/A   Overcast
3:53 PM 39.9 °F 32.5 °F 30.9 °F 70% 30.10 in 10.0 mi SSE 12.7 mph - N/A   Overcast
4:53 PM 39.9 °F 32.5 °F 30.9 °F 70% 30.11 in 10.0 mi SSE 12.7 mph 18.4 mph N/A   Scattered Clouds
5:53 PM 39.9 °F 32.5 °F 30.9 °F 70% 30.09 in 10.0 mi SSE 12.7 mph 17.3 mph N/A   Clear
6:53 PM 39.9 °F 33.9 °F 28.0 °F 63% 30.07 in 10.0 mi SSE 9.2 mph - N/A   Mostly Cloudy
7:53 PM 39.9 °F 37.8 °F 27.0 °F 60% 30.07 in 10.0 mi SSE 3.5 mph - N/A   Overcast
8:53 PM 39.9 °F 35.8 °F 27.0 °F 60% 30.09 in 10.0 mi SSE 5.8 mph - N/A   Overcast
9:53 PM 39.0 °F 35.7 °F 28.9 °F 67% 30.11 in 10.0 mi SSE 4.6 mph - 0.00 in Rain Light Rain
10:53 PM 37.9 °F 35.5 °F 30.9 °F 76% 30.13 in 10.0 mi Variable 3.5 mph - 0.01 in Rain Light Rain
11:09 PM 37.4 °F 34.9 °F 30.2 °F 75% 30.11 in 10.0 mi Variable 3.5 mph - 0.00 in Rain Light Rain
11:53 PM 39.0 °F 35.7 °F 32.0 °F 76% 30.13 in 10.0 mi SSE 4.6 mph - 0.01 in Rain Light Rain